星链-3657 (STARLINK-3657 )

导读

STARLINK-3657是美国星链计划下的低轨通信卫星,于2022年3月9日发射。作为星链星座的组成部分,它旨在为全球提供宽带互联网服务,尤其覆盖偏远地区。星链通过大规模低轨卫星组网,降低信号延迟,支撑个人联网、航空海事通信等多元场景,该卫星的入轨进一步扩充了星链系统的服务容量。

Basic Information
目录编号:
51990
目录名称:
STARLINK-3657
国际标识:
2022-025AL
轨道中心:
EARTH
卫星名称:
星链-3657
卫星全名:
星链-3657 (STARLINK-3657 )
卫星状态:
在轨 (已飞行1561 天)
发射日期:
2022-03-09 UTC
国别 :
美国 (US)
星等 :
--
Orbit Information
数据来源 国际轨道数据 AOE轨道数据
星历时间 2026-06-17T20:05:04+0800
6小时前
查看轨道信息
2026-06-17T07:00:00+0800
19小时前
查看轨道信息
半长轴 6917.918km 6917.913km
偏心率 0.0001047 0.0001176
轨道倾角 53.161° 53.159°
近地点辐角 90.127° 24.224°
升交点赤经 290.940° 293.391°
平近点角 269.984° 252.924°
近地点 539.056km 538.962km
远地点 540.506km 540.59km
周期 95.438分钟 95.438分钟
每日圈数 15.08828 15.088294
Detailed Information
固有亮度:
5
最大亮度:
2.5
卫星平台:
Starlink v1.5
覆盖范围:
全球
运营商:
太空探索技术公司
运营商所在国:
美国
制造商(研发单位):
太空探索技术公司
制造商所在国:
美国
使用方式:
暂无
Satellite Introduction
星链(Starlink)计划是由太空探索技术公司(SpaceX)提出的一个巨型低轨卫星互联网星座项目,计划在2019年至2024年间在太空搭建由约1.2万颗卫星组成的“星链”网络,其中1584颗将部署在地球上空550千米处的近地轨道,并从2020年开始工作。该卫星仍在工作。
2D Orbit Map
3D Orbit Map
Orbit Altitude Analysis Chart
Orbit Inclination Analysis Chart
Orbit Comprehensive Analysis Chart
View Comprehensive Chart